www.pogodaiklimat.ru

Погода и климат >> Архив погоды >> Египет >> Луксор


АРХИВ ПОГОДЫ в Луксоре

Время (UTC), дата Ветер
(напр.,м/с)
 
Видим.   Явления Облачность Т
(С)
Тd
(С)
f
(%)
Тe
(С)
Тes
(С)
Комфортность P
(гПа)
Po
(гПа)
Тmin
(С)
Tmax
(С)
R
(мм)
R24
(мм)
S
(см)
09 17.06 СЗ 2 10 км ясно +37.7 +13.0 23 +38 +59 опасность
солнечного
удара
1009.3 998.4
15 17.06 СЗ 2 10 км ясно +40.3 +13.0 20 +40 +43 очень
жарко
1006.7 995.9
18 17.06 штиль 0 10 км ясно +36.3 +12.8 24 +36 +36 очень
жарко
1007.9 996.9 +41.4
21 17.06 ЮЗ 1 10 км ясно +32.0 +13.6 33 +33 +33 жарко 1009.3 998.2
00 18.06 штиль 0 10 км ясно +29.4 +11.4 33 +30 +30 жарко 1009.0 997.8
03 18.06 штиль 0 10 км ясно +26.0 +8.8 34 +26 +26 жарко 1010.0 998.6
06 18.06 штиль 0 10 км ясно +33.2 +13.2 30 +34 +46 очень
жарко
1011.1 1000.0 +25.2
09 18.06 З 1 10 км ясно +39.2 +15.6 25 +41 +66 опасность
перегрева
1010.6 999.7
12 18.06 З 6 10 км ясно +41.3 +15.0 22 +42 +49 опасность
перегрева
1009.3 998.5
18 18.06 З 3 10 км ясно +34.8 +11.4 24 +34 +34 очень
жарко
1009.2 998.2 +41.3
21 18.06 штиль 0 10 км ясно +32.0 +11.1 28 +32 +32 жарко 1010.6 999.5
00 19.06 штиль 0 10 км ясно +28.8 +9.5 30 +29 +29 жарко 1009.7 998.4
03 19.06 штиль 0 10 км ясно +26.5 +9.6 35 +27 +27 жарко 1009.6 998.3
06 19.06 С 1 10 км ясно +32.9 +13.5 31 +34 +44 очень
жарко
1010.6 999.5 +25.5
09 19.06 СЗ 2 10 км ясно +38.1 +16.4 28 +40 +63 опасность
солнечного
удара
1009.3 998.4
12 19.06 СВ 4 10 км ясно +41.5 +15.5 22 +43 +54 опасность
перегрева
1007.2 996.4
15 19.06 СВ 5 10 км ясно +42.0 +15.3 21 +43 +44 опасность
перегрева
1005.7 995.0
18 19.06 З 2 10 км ясно +36.4 +17.0 32 +39 +39 очень
душно
1006.9 996.0 +42.4
21 19.06 Ю 1 10 км ясно +34.6 +12.9 27 +35 +35 очень
жарко
1007.7 996.7
00 20.06 штиль 0 10 км ясно +30.2 +12.1 33 +31 +31 жарко 1007.2 996.0
03 20.06 штиль 0 10 км ясно +28.0 +10.2 33 +28 +28 жарко 1007.3 996.0
06 20.06 штиль 0 7000 м мгла ясно +34.0 +14.0 30 +35 +47 очень
жарко
1008.2 997.2 +27.3
09 20.06 СЗ 2 10 км ясно +39.6 +17.7 28 +43 +64 опасность
перегрева
1007.2 996.4
12 20.06 СЗ 3 10 км ясно +42.9 +17.3 23 +45 +61 опасность
перегрева
1004.8 994.1
15 20.06 С 1 10 км ясно +44.3 +16.2 20 +46 +49 опасность
перегрева
1004.2 993.6
18 20.06 СВ 1 10 км ясно +38.0 +16.4 28 +40 +40 очень
душно
1005.0 994.1 +44.6
21 20.06 Ю 2 10 км ясно +35.0 +11.6 24 +35 +35 очень
жарко
1004.8 993.8
00 21.06 штиль 0 10 км ясно +30.0 +11.0 31 +30 +30 жарко 1004.3 993.2
03 21.06 штиль 0 10 км ясно +28.2 +11.6 36 +29 +29 жарко 1005.3 994.1
06 21.06 Ю 1 10 км ясно +34.6 +13.2 28 +35 +45 очень
жарко
1006.2 995.2 +28.2
09 21.06 ЮЗ 5 10 км ясно +40.7 +16.7 25 +43 +54 опасность
перегрева
1005.8 995.0
12 21.06 З 6 10 км ясно +44.0 +16.0 20 +46 +52 опасность
перегрева
1004.1 993.4
15 21.06 СЗ 6 10 км ясно +42.1 +16.0 22 +44 +45 опасность
перегрева
1003.4 992.7
18 21.06 З 3 10 км ясно +36.8 +16.2 30 +39 +39 очень
душно
1004.7 993.8 +45.2
21 21.06 З 3 10 км ясно +33.8 +12.2 27 +34 +34 очень
жарко
1006.4 995.4
00 22.06 Ю 3 10 км ясно +30.5 +11.0 30 +31 +31 жарко 1006.4 995.2
03 22.06 ЮВ 2 10 км ясно +29.3 +11.4 33 +30 +30 жарко 1007.3 996.1
06 22.06 СЗ 6 10 км ясно +32.2 +14.3 34 +34 +37 душно 1008.4 997.3 +27.7
09 22.06 СЗ 4 10 км ясно +36.1 +13.6 26 +37 +51 опасность
солнечного
удара
1007.5 996.5
12 22.06 СЗ 3 10 км ясно +40.1 +12.9 20 +40 +54 опасность
солнечного
удара
1005.7 994.9
15 22.06 СЗ 4 10 км ясно +39.4 +12.3 20 +39 +41 очень
жарко
1004.7 993.9
18 22.06 З 2 10 км ясно +34.2 +13.1 28 +35 +35 очень
жарко
1005.7 994.7 +41.0
21 22.06 ЮВ 1 10 км ясно +32.0 +13.8 33 +33 +33 жарко 1006.8 995.7
00 23.06 ЮЗ 2 10 км ясно +29.0 +15.2 43 +32 +32 душно 1006.1 994.9
03 23.06 штиль 0 10 км ясно +27.2 +14.6 46 +30 +30 душно 1006.8 995.5
06 23.06 СЗ 1 10 км ясно +32.0 +17.6 42 +36 +46 очень
душно
1007.7 996.6 +27.0
15 23.06 З 2 10 км ясно +39.9 +14.8 23 +41 +43 опасность
перегрева
1003.2 992.4
18 23.06 З 1 10 км ясно +35.2 +15.0 30 +37 +37 очень
душно
1004.4 993.4 +40.7
21 23.06 ЮЗ 2 10 км ясно +32.6 +15.1 35 +35 +35 душно 1005.7 994.6
00 24.06 ЮЗ 2 10 км ясно +29.4 +16.2 45 +33 +33 душно 1005.2 994.0
03 24.06 Ю 2 10 км ясно +27.5 +15.2 47 +30 +30 жарко 1005.9 994.6
06 24.06 штиль 0 10 км ясно +31.8 +17.1 41 +35 +47 очень
душно
1006.9 995.8 +27.3

 

Местоположение метеостанции Луксор (Египет): широта 25.67 долгота 32.70 высота над уровнем моря 99 м.

В архиве по умолчанию представлена погода в Луксоре за последнюю неделю. Архивные данные за месяц целиком и за предыдущие месяцы, начиная с января 2011 года, Вы можете получить, выбрав интересующий диапазон дат из раскрывающегося списка и нажав кнопку "Ввод!".


*Определитесь, кто Вы:
робот инопланетянин человек

Внимание! Время в таблицах - всемирное. Для получения местного времени необходимо прибавить поправку, которая равна 2 ч.

Смотрите также архив погоды в соседних городах и на ближайших метеорологических станциях:

Погода в Университете South Of Valley (Египет) (59 км)
Погода в Эль-Кусейре (Египет) (154 км)
Погода в Асуане (Египет) (189 км)
Погода в Хургаде (Египет) (193 км)
Погода в Харге (Египет) (219 км)
Погода в Асьюте (Египет) (227 км)
Погода в Эль-Торе (Египет) (299 км)
Погода в Миня (Египет) (332 км)
Погода в Абу Редис (Египет) (362 км)
Погода в Дахле (Египет) (372 км)

Пояснения к столбцам:

Ветер - указаны скорость ветра в м/с - средняя за 10 мин, порывы в срок и между сроками (в фигурных скобках) и направление, откуда дует ветер: С - северный, СВ - северо-восточный, В - восточный, ЮВ - юго-восточный, Ю - южный, ЮЗ - юго-западный, З - западный, СЗ - северо-западный.
Видимость - горизонтальная дальность видимости в метрах или километрах. При видимости от 1 до 10 км при отсутствии осадков обычно наблюдается дымка, при ухудшении видимости до 1 км и менее - туман. В сухую погоду видимость может ухудшаться дымом, пылью или мглою.
Явления - указаны атмосферные явления, наблюдавшиеся в срок или в последний час перед сроком; фигурными скобками обозначены явления, наблюдавшиеся между сроками (за 1-3 часа до срока); квадратными скобками обозначены град или гололедные отложения с указанием их диаметра в мм.
Облачность - указаны через наклонную черту общая и нижняя облачность в баллах и высота нижней границы облаков в метрах; квадратными скобками обозначены формы облаков: Ci - перистые, Cs - перисто-слоистые, Cc - перисто-кучевые, Ac - высококучевые, As - высокослоистые, Sc - слоисто-кучевые, Ns - слоисто-дождевые, Cu - кучевые, Cb - кучево-дождевые. Подробнее классификацию облаков см. в Атласе облаков (PDF).
T - Температура воздуха - температура, измеренная на высоте 2 м над землей.
Td - Температура точки росы - температура, при понижении до которой содержащийся в воздухе водяной пар достигнет насыщения.
f - Относительная влажность воздуха - влажноcть воздуха, измеренная на высоте 2 м над землей.
Te - Эффективная температура - температура, которую ощущает одетый по сезону человек в тени. Характеристика душности погоды. При расчете учитывается влияние влажности воздуха и скорости ветра на теплоощущения человека.
Tes - Эффективная температура на солнце - температура, которую ощущает человек, с поправкой на солнечный нагрев. Характеристика знойности погоды. Зависит от высоты солнца над горизонтом, облачности и скорости ветра. Ночью, в пасмурную погоду, а также при ветре 12 м/с и более поправка равна нулю.
P - Атмосферное давление - приведенное к уровню моря атмосферное давление.
Po - Атмосферное давление - измеренное на уровне метеостанции атмосферное давление.
Tmin - Минимальная температура - минимум температуры воздуха на высоте 2 м над землей.
Tmax - Максимальная температура - максимум температуры воздуха на высоте 2 м над землей.
R - Количество осадков - Количество выпавших осадков за период времени, мм. При наведении курсора мыши на число - период времени, за который выпало указанное количество осадков.
R24 - Количество осадков - Количество выпавших осадков за 24 часа, мм.
S - Снежный покров - Высота снежного покрова, см. При наведении курсора мыши на число - состояние снежного покрова и степень покрытия местности в баллах.